Fremont, MI

4:59 AM EDT on April 29, 2017 (GMT -0400)
Fremont

Weather History for KFFX - February, 2014

Change the Weather History Date:

Saturday, February 22, 2014

  Actual Average (KMKG) Record (KMKG)
Temperature  
Mean Temperature 24 °F -  
Max Temperature 28 °F 36 °F 61 °F (2017)
Min Temperature 20 °F 23 °F -16 °F (1936)
Degree Days  
Heating Degree Days 41    
Moisture  
Dew Point 13 °F    
Average Humidity 64    
Maximum Humidity 73    
Minimum Humidity 53    
Precipitation  
Precipitation 0.00 in - - ()
Sea Level Pressure  
Sea Level Pressure 29.84 in    
Wind  
Wind Speed 12 mph (WSW)    
Max Wind Speed 18 mph    
Max Gust Speed 25 mph    
Visibility 10 miles    
Events      
Averages and records for this station are not official NWS values.
T = Trace of Precipitation, MM = Missing Value Source: NWS Daily Summary

Daily Weather History Graph

Daily Weather History Graph

Search for Another Location

Airport or City:

Trip Planner

Search our weather history database for the weather conditions in past years. The results will help you decide how hot, cold, wet, or windy it might be!

Date:

Astronomy

Feb. 22, 2014 Rise Set
Actual Time 7:31 AM EST 6:23 PM EST
Civil Twilight 7:02 AM EST 6:52 PM EST
Nautical Twilight 6:29 AM EST 7:26 PM EST
Astronomical Twilight 5:56 AM EST 7:59 PM EST
Moon 1:30 AM EST (2/22) 11:29 AM EST (2/22)
Length of Visible Light 11h 50m
Length of Day
10h 52m
Waning Gibbous, 50% of the Moon is Illuminated
Feb 22
Waning Gibbous
Feb 22
Last Quarter
Mar 1
New
Mar 8
First Quarter
Mar 16
Full

Hourly Weather History & Observations

Time (EST) Temp. Windchill Dew Point Humidity Pressure Visibility Wind Dir Wind Speed Gust Speed Precip Events Conditions
12:12 AM 24.4 °F 13.5 °F 14.0 °F 65% 29.68 in 10.0 mi West 11.5 mph 24.2 mph N/A   Clear
12:32 AM 24.3 °F 11.7 °F 14.4 °F 66% 29.68 in 10.0 mi WSW 15.0 mph 21.9 mph N/A   Scattered Clouds
12:52 AM 23.9 °F 12.9 °F 14.0 °F 66% 29.69 in 10.0 mi WSW 11.5 mph 21.9 mph N/A   Clear
1:12 AM 23.5 °F 11.8 °F 14.2 °F 67% 29.69 in 10.0 mi WSW 12.7 mph 18.4 mph N/A   Clear
1:32 AM 23.4 °F 11.6 °F 14.2 °F 68% 29.69 in 10.0 mi WSW 12.7 mph 19.6 mph N/A   Clear
1:53 AM 23.0 °F 10.6 °F 14.4 °F 70% 29.70 in 10.0 mi WSW 13.8 mph 19.6 mph N/A   Clear
2:13 AM 22.8 °F 10.4 °F 14.4 °F 70% 29.70 in 10.0 mi WSW 13.8 mph 18.4 mph N/A   Clear
2:33 AM 22.6 °F 10.7 °F 14.4 °F 71% 29.70 in 10.0 mi WSW 12.7 mph 17.3 mph N/A   Clear
2:53 AM 22.1 °F 12.0 °F 14.4 °F 72% 29.70 in 10.0 mi WSW 9.2 mph - N/A   Clear
3:13 AM 21.9 °F 11.7 °F 14.0 °F 72% 29.70 in 10.0 mi WSW 9.2 mph 17.3 mph N/A   Clear
3:33 AM 21.7 °F 10.8 °F 14.0 °F 72% 29.70 in 10.0 mi WSW 10.4 mph - N/A   Clear
3:53 AM 21.4 °F 11.1 °F 13.8 °F 73% 29.70 in 10.0 mi WSW 9.2 mph - N/A   Clear
4:13 AM 21.4 °F 11.1 °F 13.6 °F 72% 29.71 in 10.0 mi WSW 9.2 mph - N/A   Clear
4:33 AM 21.2 °F 10.1 °F 13.5 °F 72% 29.72 in 10.0 mi WSW 10.4 mph - N/A   Clear
4:54 AM 21.6 °F 11.3 °F 13.3 °F 70% 29.73 in 10.0 mi West 9.2 mph - N/A   Clear
5:14 AM 21.2 °F 10.9 °F 13.1 °F 71% 29.74 in 10.0 mi WSW 9.2 mph - N/A   Clear
5:34 AM 21.2 °F 10.9 °F 13.1 °F 71% 29.75 in 10.0 mi WSW 9.2 mph 16.1 mph N/A   Clear
5:54 AM 21.6 °F 11.3 °F 13.1 °F 70% 29.75 in 10.0 mi WSW 9.2 mph 17.3 mph N/A   Scattered Clouds
6:14 AM 21.2 °F 10.9 °F 13.1 °F 71% 29.76 in 10.0 mi WSW 9.2 mph - N/A   Scattered Clouds
6:34 AM 21.0 °F 11.4 °F 13.1 °F 71% 29.77 in 10.0 mi West 8.1 mph - N/A   Scattered Clouds
6:54 AM 21.0 °F 10.6 °F 12.7 °F 70% 29.78 in 10.0 mi WSW 9.2 mph - N/A   Scattered Clouds
7:14 AM 21.2 °F 10.1 °F 12.7 °F 70% 29.78 in 10.0 mi WSW 10.4 mph - N/A   Scattered Clouds
7:34 AM 21.2 °F 10.1 °F 12.7 °F 70% 29.79 in 10.0 mi WSW 10.4 mph - N/A   Clear
7:55 AM 21.6 °F 10.6 °F 12.7 °F 69% 29.80 in 10.0 mi WSW 10.4 mph 16.1 mph N/A   Clear
8:15 AM 21.9 °F 10.4 °F 12.9 °F 68% 29.80 in 10.0 mi WSW 11.5 mph 17.3 mph N/A   Clear
8:35 AM 23.0 °F 12.4 °F 13.1 °F 66% 29.81 in 10.0 mi WSW 10.4 mph 17.3 mph N/A   Clear
8:55 AM 23.7 °F 12.1 °F 13.1 °F 64% 29.83 in 10.0 mi West 12.7 mph 21.9 mph N/A   Clear
9:15 AM 24.4 °F 11.9 °F 13.1 °F 62% 29.84 in 10.0 mi West 15.0 mph 23.0 mph N/A   Clear
9:35 AM 24.8 °F 11.1 °F 13.1 °F 61% 29.84 in 10.0 mi West 18.4 mph 25.3 mph N/A   Clear
9:55 AM 25.3 °F 13.1 °F 13.6 °F 61% 29.84 in 10.0 mi West 15.0 mph 20.7 mph N/A   Clear
10:15 AM 25.7 °F 12.7 °F 13.1 °F 59% 29.85 in 10.0 mi West 17.3 mph 21.9 mph N/A   Clear
10:31 AM 25.5 °F 13.8 °F 12.2 °F 57% 29.87 in 10.0 mi West 13.8 mph 23.0 mph N/A   Clear
10:51 AM 25.2 °F 13.3 °F 12.6 °F 59% 29.87 in 10.0 mi West 13.8 mph 23.0 mph N/A   Clear
11:11 AM 26.6 °F 16.2 °F 13.5 °F 58% 29.87 in 10.0 mi West 11.5 mph 20.7 mph N/A   Scattered Clouds
11:31 AM 27.3 °F 17.1 °F 13.8 °F 57% 29.88 in 10.0 mi WSW 11.5 mph 21.9 mph N/A   Scattered Clouds
11:51 AM 27.3 °F 16.1 °F 13.3 °F 56% 29.89 in 10.0 mi WSW 13.8 mph 24.2 mph N/A   Clear
12:11 PM 27.9 °F 15.5 °F 14.0 °F 56% 29.89 in 10.0 mi WSW 17.3 mph 23.0 mph N/A   Clear
12:31 PM 27.5 °F 15.4 °F 14.2 °F 57% 29.89 in 10.0 mi WSW 16.1 mph 23.0 mph N/A   Clear
12:51 PM 27.7 °F 15.6 °F 13.8 °F 56% 29.89 in 10.0 mi WSW 16.1 mph 25.3 mph N/A   Clear
1:11 PM 28.2 °F 17.2 °F 13.1 °F 53% 29.89 in 10.0 mi WSW 13.8 mph 20.7 mph N/A   Clear
1:32 PM 28.0 °F 16.1 °F 13.8 °F 55% 29.88 in 10.0 mi WSW 16.1 mph 21.9 mph N/A   Clear
1:52 PM 28.2 °F 16.8 °F 14.0 °F 55% 29.89 in 10.0 mi WSW 15.0 mph 20.7 mph N/A   Clear
2:12 PM 28.2 °F 15.9 °F 14.2 °F 56% 29.88 in 10.0 mi WSW 17.3 mph 20.7 mph N/A   Clear
2:32 PM 28.4 °F 17.0 °F 13.3 °F 53% 29.89 in 10.0 mi West 15.0 mph 19.6 mph N/A   Clear
2:52 PM 28.2 °F 15.9 °F 14.0 °F 55% 29.89 in 10.0 mi WSW 17.3 mph 21.9 mph N/A   Mostly Cloudy
3:12 PM 28.4 °F 16.2 °F 14.7 °F 57% 29.89 in 10.0 mi SW 17.3 mph 24.2 mph N/A   Mostly Cloudy
3:32 PM 27.5 °F 15.9 °F 14.5 °F 58% 29.89 in 10.0 mi WSW 15.0 mph 19.6 mph N/A   Mostly Cloudy
3:52 PM 27.3 °F 15.2 °F 14.9 °F 60% 29.88 in 10.0 mi SW 16.1 mph 23.0 mph N/A   Scattered Clouds
4:12 PM 27.5 °F 15.4 °F 14.5 °F 58% 29.88 in 10.0 mi WSW 16.1 mph 20.7 mph N/A   Clear
4:33 PM 27.5 °F 15.9 °F 13.6 °F 56% 29.89 in 10.0 mi WSW 15.0 mph 18.4 mph N/A   Clear
4:53 PM 27.5 °F 16.3 °F 14.0 °F 57% 29.89 in 10.0 mi SW 13.8 mph 17.3 mph N/A   Clear
5:13 PM 27.5 °F 15.9 °F 13.8 °F 56% 29.90 in 10.0 mi WSW 15.0 mph 20.7 mph N/A   Clear
5:33 PM 27.0 °F 16.1 °F 14.4 °F 59% 29.90 in 10.0 mi WSW 12.7 mph - N/A   Clear
5:53 PM 26.6 °F 15.7 °F 14.0 °F 59% 29.89 in 10.0 mi WSW 12.7 mph 20.7 mph N/A   Clear
6:13 PM 26.4 °F 17.3 °F 14.5 °F 61% 29.90 in 10.0 mi WSW 9.2 mph 18.4 mph N/A   Clear
6:33 PM 25.7 °F 16.4 °F 14.7 °F 63% 29.90 in 10.0 mi WSW 9.2 mph 16.1 mph N/A   Clear
6:53 PM 25.3 °F 18.5 °F 14.4 °F 63% 29.90 in 10.0 mi WSW 5.8 mph - N/A   Clear
7:13 PM 23.9 °F 16.8 °F 14.0 °F 66% 29.91 in 10.0 mi WSW 5.8 mph - N/A   Clear
7:34 PM 24.3 °F 17.3 °F 14.0 °F 65% 29.92 in 10.0 mi WSW 5.8 mph - N/A   Clear
7:54 PM 24.1 °F 17.0 °F 14.0 °F 65% 29.92 in 10.0 mi WSW 5.8 mph - N/A   Clear
8:14 PM 23.5 °F - 14.0 °F 67% 29.92 in 10.0 mi Calm Calm - N/A   Clear
8:34 PM 23.2 °F 18.7 °F 14.0 °F 68% 29.93 in 10.0 mi WSW 3.5 mph - N/A   Clear
8:54 PM 21.7 °F 15.5 °F 13.3 °F 70% 29.93 in 10.0 mi SW 4.6 mph - N/A   Clear
9:14 PM 21.7 °F 17.0 °F 13.1 °F 69% 29.94 in 10.0 mi WSW 3.5 mph - N/A   Clear
9:34 PM 20.5 °F 12.8 °F 12.2 °F 70% 29.95 in 10.0 mi WSW 5.8 mph - N/A   Clear
9:54 PM 21.4 °F 13.8 °F 10.9 °F 64% 29.95 in 10.0 mi WSW 5.8 mph - N/A   Clear
10:14 PM 22.6 °F 16.5 °F 10.4 °F 59% 29.95 in 10.0 mi WSW 4.6 mph - N/A   Clear
10:35 PM 22.8 °F 15.5 °F 10.6 °F 59% 29.96 in 10.0 mi WSW 5.8 mph - N/A   Clear
10:55 PM 22.8 °F 14.5 °F 10.9 °F 60% 29.96 in 10.0 mi WSW 6.9 mph - N/A   Clear
11:15 PM 22.6 °F 15.3 °F 11.1 °F 61% 29.96 in 10.0 mi WSW 5.8 mph - N/A   Clear
11:35 PM 22.3 °F 14.9 °F 11.1 °F 62% 29.96 in 10.0 mi West 5.8 mph - N/A   Clear
11:55 PM 22.3 °F 13.9 °F 10.9 °F 62% 29.97 in 10.0 mi West 6.9 mph - N/A   Clear